Wind_Speed
13 13 13 13 12 13 13 14 14 14 14 15 15 15 16 16 16 17 18 18 19 19 20 20 20 20 21 22 22 23 23 23 23 23 23 24 24 24 24 23 22 22 23
16 16 16 16 15 15 15 16 17 17 17 17 18 18 18 18 19 19 19 20 20 21 21 22 22 23 23 24 24 24 24 24 24 23 24 24 25 26 25 25 25 24 24
19 18 18 18 18 18 18 19 19 19 20 20 20 20 20 20 20 21 21 22 22 22 23 23 24 24 24 25 26 26 26 26 26 26 25 26 26 26 27 28 28 27 27
22 21 21 21 21 21 21 21 22 22 22 22 22 22 21 21 22 22 23 23 24 24 24 25 25 25 26 27 27 28 28 28 27 26 27 27 28 29 30 30 29 30 29
24 24 24 24 24 24 23 24 24 24 24 24 24 23 23 22 22 23 24 25 25 26 26 27 27 27 28 29 28 28 28 29 28 28 29 29 30 30 30 31 31 31 32
27 27 27 27 27 27 26 26 26 26 26 26 26 26 26 25 25 25 25 25 26 27 28 28 27 28 29 29 29 30 30 30 30 30 30 31 31 32 32 32 33 33 33
29 29 30 30 30 29 28 29 28 29 29 29 29 29 28 28 28 27 27 27 28 29 29 29 29 29 30 30 30 31 31 31 31 32 32 33 32 33 34 34 35 35 35
32 31 32 31 31 32 32 31 31 31 31 31 30 30 29 29 30 30 29 30 31 30 30 30 30 30 31 31 31 31 32 33 33 33 34 33 33 33 34 35 35 36 35
34 33 33 33 33 33 33 33 33 33 32 32 32 31 31 31 31 31 31 31 31 31 31 31 32 31 32 33 33 33 33 33 34 33 32 32 33 34 34 35 36 36 37
34 34 35 34 34 34 34 34 34 33 33 33 33 33 33 32 32 32 33 32 32 31 32 33 33 33 34 35 34 33 33 33 33 33 33 34 35 36 36 37 38 38 39
34 35 35 35 35 35 35 36 36 35 35 35 35 35 35 35 34 33 33 33 33 33 34 33 34 35 35 36 36 35 33 33 34 34 35 36 36 37 37 38 38 39 38
34 34 35 36 37 37 37 37 37 36 37 37 38 37 37 36 36 36 35 35 35 35 35 35 35 35 36 36 36 35 35 35 35 36 36 36 37 37 37 37 37 37 38
35 35 36 36 37 38 38 37 37 36 36 37 38 37 37 37 38 37 36 36 36 36 36 36 36 36 36 36 36 35 36 36 37 37 36 36 37 37 37 37 38 38 38
34 34 34 35 36 36 37 38 37 37 37 37 37 37 36 36 36 36 37 36 36 36 37 36 36 36 36 36 36 36 37 37 37 37 37 37 37 37 37 38 38 38 38
34 35 35 35 35 36 36 37 37 37 37 37 37 36 36 36 36 36 37 37 37 36 36 37 37 36 35 35 36 36 36 36 36 36 36 36 36 36 36 37 37 37 37
34 34 34 34 35 35 35 35 36 37 37 36 36 35 35 36 36 36 36 36 36 36 36 35 35 35 35 35 35 35 35 35 36 36 36 36 36 36 37 37 37 37 37
34 34 34 34 34 34 35 35 35 36 36 36 36 36 36 36 35 36 36 36 36 35 34 34 34 35 36 36 35 35 35 36 36 36 35 36 36 37 37 37 37 37 37
33 33 33 34 34 35 35 35 35 35 35 35 36 36 35 35 36 36 36 36 36 35 35 35 35 35 35 35 35 35 35 35 35 35 35 35 35 36 36 36 36 36 36
31 31 32 33 34 34 34 34 34 34 33 33 34 34 34 35 35 36 35 35 35 35 35 34 34 34 34 34 34 34 34 35 35 34 34 35 35 35 35 35 35 34 34
29 30 30 31 31 31 31 31 31 31 31 32 32 32 32 33 33 33 33 34 34 33 33 33 34 33 32 32 32 33 33 33 33 33 33 33 33 33 33 33 33 33 33
28 28 28 28 28 28 28 28 29 28 29 29 29 28 28 29 30 31 31 32 32 31 32 32 32 31 31 31 31 32 32 32 32 32 32 32 33 33 33 33 32 32 32
26 26 26 26 26 25 25 25 25 25 25 25 26 26 26 27 27 28 28 28 29 29 30 30 30 30 31 31 31 31 31 31 31 31 32 32 33 32 32 32 31 31 30
24 24 24 24 23 23 23 23 22 22 22 23 23 23 24 24 24 25 26 26 26 26 27 28 28 29 30 30 31 31 31 31 30 31 31 31 30 30 30 30 30 30 30
21 21 21 21 21 21 20 20 20 21 21 21 22 23 23 24 24 24 24 24 24 25 26 27 27 28 29 29 29 29 29 29 30 29 29 29 29 29 29 29 29 28 28
18 18 18 19 19 19 20 20 21 22 22 23 23 23 23 23 23 23 24 23 24 25 25 26 27 28 28 28 28 29 29 29 29 29 28 28 28 28 28 28 27 27 27
17 17 17 17 17 19 19 20 21 21 21 21 22 22 22 22 23 23 24 24 24 25 26 26 27 27 27 28 28 28 29 28 28 28 28 28 28 28 27 26 25 25 25
Wind_Direction
281 281 280 278 277 275 273 270 271 272 273 274 274 274 272 271 270 268 268 270 271 271 272 273 274 276 277 279 282 283 284 283 284 282 279 278 277 278 278 276 278 279 278
279 277 278 278 276 276 276 275 274 272 272 273 273 274 274 271 269 269 269 271 273 272 274 275 275 277 279 279 280 282 285 285 284 282 280 280 280 277 276 274 275 277 278
277 274 275 276 276 275 275 277 275 274 273 273 274 273 273 271 269 269 270 271 273 274 275 274 274 276 278 280 280 282 283 285 284 282 280 279 280 276 277 276 275 275 275
276 277 277 277 275 275 275 273 272 271 273 274 274 272 272 273 270 269 270 271 272 274 276 276 276 278 279 279 280 281 282 282 282 282 281 279 279 278 278 278 276 273 273
275 274 275 275 274 273 273 273 273 273 274 275 274 273 272 275 276 274 271 271 272 275 276 277 279 280 280 280 282 281 281 281 280 281 281 280 278 278 278 278 277 275 273
273 272 272 272 272 272 269 270 272 274 274 274 275 275 275 274 275 276 276 276 274 275 277 278 279 279 281 281 281 282 282 281 280 280 280 280 279 278 276 276 275 274 275
274 273 274 273 272 273 273 273 273 274 274 273 273 273 274 274 274 274 274 275 278 278 279 278 278 280 282 282 283 283 282 282 281 281 280 279 279 278 276 276 275 274 275
274 274 273 273 273 273 275 274 273 273 273 273 272 272 272 273 274 273 273 274 277 279 280 280 281 282 282 283 284 283 282 280 280 279 280 281 280 279 279 277 276 275 276
273 273 272 272 273 274 274 274 273 272 273 271 270 271 271 271 273 273 273 275 278 280 280 280 280 281 282 283 283 283 282 281 280 278 279 281 281 280 281 279 278 278 278
274 273 272 273 273 273 274 273 272 272 272 271 270 271 271 271 273 274 274 275 277 279 279 279 279 280 281 282 282 282 282 282 282 281 280 281 281 281 280 281 281 280 280
275 273 273 272 272 273 273 272 271 271 271 272 273 272 272 272 274 275 275 276 277 278 280 280 281 282 281 280 281 280 281 281 281 281 281 282 281 281 280 281 281 280 279
274 272 272 272 272 272 271 271 270 271 272 273 272 273 272 273 274 275 277 278 278 279 280 280 281 283 281 281 281 282 282 282 282 282 281 281 281 281 281 280 280 279 280
274 273 272 271 271 271 271 270 269 270 271 272 273 274 275 275 275 276 277 279 279 277 278 279 280 281 281 281 281 281 281 282 282 282 281 281 281 281 281 280 279 280 280
274 273 273 273 272 272 273 272 271 271 271 272 273 273 274 275 276 277 277 278 279 279 278 277 279 280 280 280 280 280 281 281 282 282 281 281 281 281 281 281 281 281 281
275 274 273 272 273 273 273 272 272 272 273 272 273 274 274 274 276 276 277 278 279 279 278 277 278 278 279 279 280 281 281 282 281 281 282 282 281 281 281 281 282 283 282
275 274 273 273 273 273 274 273 272 273 274 274 273 274 274 274 275 276 277 278 279 279 278 277 276 277 277 278 279 280 280 281 283 284 284 283 282 281 281 281 281 281 280
274 274 273 272 273 273 274 276 276 276 275 273 272 273 274 275 276 276 276 278 279 277 277 277 277 277 278 279 280 280 281 282 283 284 284 283 282 281 282 281 280 281 281
274 274 273 273 273 273 273 276 277 276 276 276 275 275 276 276 278 278 277 276 277 276 276 276 277 278 279 279 279 280 281 282 282 283 283 283 282 281 282 282 282 282 283
276 274 274 275 275 273 274 274 276 276 276 277 278 278 278 278 278 279 278 276 276 276 276 277 277 279 279 279 279 279 281 282 281 281 281 281 282 284 285 284 284 283 283
277 276 276 276 276 275 274 274 276 277 278 279 279 278 278 278 277 276 276 276 276 276 276 277 278 279 279 278 279 280 280 281 281 281 281 282 283 285 285 284 283 282 282
278 278 277 276 274 274 275 276 277 277 278 279 280 280 280 279 278 276 276 277 277 277 278 278 279 281 281 280 282 282 282 282 281 282 284 285 285 284 285 284 283 282 281
276 276 275 274 273 273 275 277 277 278 280 281 282 282 283 282 280 278 277 279 279 278 278 278 279 280 281 282 282 282 283 284 284 284 284 284 284 285 285 284 284 282 281
275 274 272 271 271 274 276 278 278 279 281 280 280 280 281 282 281 281 282 281 281 279 278 279 280 282 283 283 282 284 285 285 285 285 285 285 285 286 286 286 285 282 281
276 275 275 274 273 275 276 277 279 280 281 283 282 282 282 283 284 285 284 284 284 284 283 284 285 286 286 286 286 286 287 286 287 287 287 287 287 287 287 288 287 285 282
279 277 276 277 276 276 277 277 279 281 282 282 283 284 284 284 285 285 285 285 285 285 285 285 285 287 287 287 288 288 288 289 289 291 290 290 290 290 289 289 287 286 284
279 280 279 279 278 278 277 278 279 282 285 286 287 288 288 288 288 287 286 286 287 288 287 287 288 288 288 288 289 290 291 291 292 290 290 290 291 292 292 288 286 284 284
Height
5878 5878 5878 5877 5876 5876 5875 5874 5874 5874 5874 5873 5873 5873 5872 5872 5872 5872 5871 5871 5870 5870 5869 5869 5868 5868 5867 5866 5865 5865 5864 5863 5862 5861 5860 5859 5858 5857 5856 5855 5854 5853 5852
5873 5873 5872 5872 5871 5870 5870 5869 5869 5869 5868 5868 5868 5867 5867 5867 5866 5866 5866 5865 5864 5864 5863 5862 5862 5861 5861 5860 5859 5858 5857 5856 5855 5854 5852 5851 5851 5850 5849 5848 5847 5846 5845
5868 5867 5866 5866 5865 5864 5864 5863 5863 5863 5863 5862 5861 5861 5861 5860 5860 5860 5859 5858 5858 5857 5857 5856 5855 5854 5853 5853 5852 5851 5850 5849 5848 5847 5845 5844 5843 5842 5841 5840 5840 5839 5838
5862 5861 5860 5859 5858 5858 5857 5857 5857 5856 5856 5855 5854 5854 5854 5854 5853 5853 5852 5851 5851 5850 5849 5848 5847 5846 5846 5845 5844 5843 5842 5841 5840 5839 5838 5836 5835 5834 5833 5832 5831 5830 5829
5854 5853 5853 5852 5851 5850 5850 5850 5849 5849 5848 5847 5847 5847 5847 5847 5846 5845 5844 5844 5843 5843 5842 5840 5840 5839 5838 5837 5836 5834 5833 5832 5831 5830 5829 5828 5827 5825 5824 5823 5822 5821 5820
5846 5845 5844 5843 5842 5841 5841 5841 5841 5841 5840 5839 5839 5839 5839 5839 5838 5838 5837 5836 5835 5834 5834 5833 5832 5831 5830 5828 5827 5826 5825 5823 5822 5821 5820 5818 5817 5816 5815 5814 5813 5812 5811
5838 5837 5836 5834 5833 5833 5833 5833 5832 5832 5832 5831 5831 5831 5830 5830 5830 5829 5828 5828 5827 5826 5825 5824 5823 5822 5820 5819 5818 5816 5815 5814 5813 5812 5810 5809 5808 5806 5805 5804 5802 5801 5801
5828 5827 5826 5825 5825 5824 5824 5824 5823 5823 5823 5822 5822 5821 5821 5821 5821 5821 5820 5818 5818 5817 5816 5815 5814 5813 5811 5810 5808 5807 5805 5804 5803 5801 5800 5799 5797 5795 5794 5793 5791 5790 5789
5817 5817 5816 5815 5815 5815 5814 5814 5814 5814 5813 5813 5812 5812 5812 5812 5811 5811 5810 5810 5809 5808 5807 5806 5805 5803 5802 5800 5798 5797 5795 5793 5792 5791 5789 5788 5786 5784 5783 5781 5780 5779 5777
5806 5806 5806 5805 5805 5805 5804 5804 5803 5803 5803 5803 5802 5802 5802 5802 5801 5801 5800 5800 5800 5799 5797 5796 5795 5794 5792 5790 5788 5787 5785 5784 5782 5780 5779 5777 5776 5774 5772 5770 5769 5767 5766
5797 5796 5795 5795 5795 5794 5794 5793 5793 5792 5793 5793 5792 5792 5792 5792 5791 5791 5790 5789 5789 5788 5787 5786 5785 5783 5782 5780 5778 5777 5775 5773 5772 5770 5768 5766 5764 5762 5760 5759 5757 5756 5754
5786 5785 5784 5784 5784 5784 5783 5782 5782 5782 5782 5782 5782 5782 5782 5782 5781 5780 5779 5779 5779 5778 5777 5776 5774 5772 5771 5769 5767 5766 5764 5763 5761 5759 5758 5755 5753 5751 5749 5747 5746 5744 5742
5775 5775 5774 5773 5773 5772 5772 5771 5771 5771 5771 5771 5771 5772 5772 5771 5771 5770 5769 5769 5768 5767 5766 5765 5763 5761 5760 5758 5757 5755 5754 5752 5750 5748 5746 5744 5742 5740 5738 5736 5734 5732 5730
5765 5764 5763 5763 5762 5762 5761 5760 5760 5761 5760 5760 5760 5760 5760 5760 5760 5759 5758 5758 5757 5756 5755 5754 5752 5751 5749 5747 5746 5744 5742 5740 5739 5737 5735 5733 5731 5729 5727 5725 5723 5721 5719
5754 5754 5753 5752 5751 5750 5750 5749 5749 5750 5750 5750 5750 5750 5749 5749 5749 5748 5747 5747 5746 5745 5744 5742 5741 5740 5738 5737 5735 5733 5731 5729 5727 5725 5723 5721 5719 5717 5715 5713 5711 5709 5707
5744 5743 5741 5741 5740 5740 5739 5739 5739 5739 5739 5738 5738 5738 5738 5738 5737 5736 5736 5735 5734 5733 5732 5731 5730 5728 5727 5725 5723 5721 5719 5718 5716 5714 5712 5710 5708 5706 5704 5702 5700 5697 5695
5733 5732 5731 5730 5730 5729 5729 5729 5729 5729 5728 5727 5727 5727 5727 5726 5726 5725 5724 5723 5723 5722 5721 5719 5718 5717 5715 5714 5712 5710 5709 5707 5705 5703 5701 5699 5697 5695 5692 5690 5688 5686 5684
5723 5721 5720 5719 5719 5718 5718 5718 5718 5717 5717 5716 5716 5716 5716 5715 5715 5714 5713 5712 5711 5710 5710 5708 5707 5706 5704 5703 5701 5699 5697 5696 5694 5692 5690 5688 5686 5683 5681 5679 5677 5675 5672
5713 5712 5710 5710 5709 5708 5708 5708 5707 5707 5707 5706 5706 5706 5705 5704 5704 5703 5702 5701 5700 5699 5698 5697 5696 5694 5693 5692 5690 5688 5687 5685 5683 5681 5679 5677 5675 5672 5670 5668 5665 5663 5661
5704 5703 5702 5701 5700 5699 5699 5698 5698 5697 5697 5697 5697 5696 5695 5694 5693 5692 5691 5691 5689 5688 5687 5686 5685 5684 5682 5681 5679 5678 5676 5674 5672 5670 5668 5666 5664 5661 5659 5657 5655 5653 5651
5696 5694 5693 5693 5692 5691 5690 5690 5689 5689 5688 5688 5687 5686 5685 5684 5683 5682 5682 5681 5680 5679 5678 5677 5675 5674 5673 5671 5670 5667 5665 5664 5662 5660 5658 5656 5653 5651 5649 5647 5644 5642 5640
5687 5686 5686 5685 5684 5683 5683 5682 5682 5681 5680 5680 5679 5678 5677 5676 5675 5673 5672 5671 5670 5669 5668 5667 5666 5665 5663 5662 5660 5658 5656 5654 5652 5650 5648 5645 5643 5641 5638 5636 5634 5632 5630
5680 5679 5678 5678 5677 5677 5676 5675 5675 5674 5673 5672 5671 5670 5669 5668 5666 5665 5664 5663 5662 5661 5660 5658 5657 5656 5654 5652 5650 5648 5646 5644 5642 5640 5638 5635 5633 5631 5628 5626 5624 5622 5620
5673 5672 5671 5671 5671 5670 5670 5669 5668 5667 5666 5665 5664 5663 5661 5660 5658 5657 5656 5655 5653 5652 5651 5649 5648 5646 5645 5643 5641 5639 5636 5634 5632 5630 5628 5625 5623 5621 5618 5616 5614 5612 5610
5667 5666 5666 5665 5664 5663 5663 5662 5661 5660 5659 5658 5657 5655 5653 5652 5651 5649 5648 5647 5646 5644 5643 5641 5639 5637 5636 5634 5632 5630 5628 5625 5623 5621 5618 5616 5614 5611 5609 5607 5604 5603 5601
5662 5661 5660 5659 5658 5657 5656 5655 5654 5653 5652 5650 5649 5648 5646 5645 5643 5642 5641 5639 5638 5636 5634 5632 5630 5628 5626 5624 5623 5621 5619 5616 5614 5612 5610 5607 5605 5602 5600 5598 5596 5594 5593